Weather History for Moncks Corner, SC

Change the Weather History Date:

Friday, October 4, 2013

  Actual Average (KCHS) Record (KCHS)
Temperature  
Mean Temperature 74 °F 71 °F  
Max Temperature 86 °F 80 °F 92 °F (1954)
Min Temperature 62 °F 61 °F 37 °F (1974)
Degree Days  
Heating Degree Days 0 1  
Month to date heating degree days 4  
Since 1 July heating degree days 7  
Cooling Degree Days 9 6  
Month to date cooling degree days 27  
Year to date cooling degree days 2165  
Growing Degree Days 24 (Base 50)    
Moisture  
Dew Point 68 °F    
Average Humidity 86    
Maximum Humidity 100    
Minimum Humidity 48    
Precipitation  
Precipitation 0.00 in 0.16 in 2.52 in (1992)
Month to date precipitation 0.65  
Year to date precipitation 42.39  
Sea Level Pressure  
Sea Level Pressure 30.11 in    
Wind  
Wind Speed 1 mph (NNW)    
Max Wind Speed 7 mph    
Max Gust Speed -    
Visibility 7 miles    
Events Fog    
T = Trace of Precipitation, MM = Missing Value Source: NWS Daily Summary

Daily Weather History Graph

Daily Weather History Graph

Search for Another Location

Airport:

Trip Planner

Search our weather history database for the weather conditions in past years. The results will help you decide how hot, cold, wet, or windy it might be!

Date:

Astronomy

Oct. 04, 2013 Rise Set
Actual Time 7:16 AM EDT 7:00 PM EDT
Civil Twilight 6:51 AM EDT 7:25 PM EDT
Nautical Twilight 6:23 AM EDT 7:53 PM EDT
Astronomical Twilight 5:54 AM EDT 8:22 PM EDT
Moon 6:50 AM EDT (10/4) 6:43 PM EDT (10/4)
Length of Visible Light 12h 33m
Length of Day
11h 43m
Waning Crescent, 0% of the Moon is Illuminated
Oct 4
Waning Crescent
Oct 4
New
Oct 11
First Quarter
Oct 18
Full
Oct 26
Last Quarter

Hourly Weather History & Observations

Time (EDT) Temp. Heat Index Dew Point Humidity Pressure Visibility Wind Dir Wind Speed Gust Speed Precip Events Conditions
12:35 AM 66.2 °F - 66.2 °F 100% 30.11 in 3.0 mi Calm Calm - N/A   Clear
12:55 AM 66.2 °F - 66.2 °F 100% 30.11 in 7.0 mi Calm Calm - N/A   Clear
1:15 AM 66.2 °F - 66.2 °F 100% 30.11 in 7.0 mi Calm Calm - N/A   Clear
1:35 AM 66.2 °F - 66.2 °F 100% 30.10 in 1.8 mi Calm Calm - N/A   Mist
1:55 AM 66.2 °F - 66.2 °F 100% 30.10 in 0.8 mi Calm Calm - N/A   Mist
2:15 AM 66.2 °F - 66.2 °F 100% 30.10 in 4.0 mi Calm Calm - N/A   Clear
2:35 AM 64.4 °F - 64.4 °F 100% 30.10 in 5.0 mi Calm Calm - N/A   Clear
2:55 AM 64.4 °F - 64.4 °F 100% 30.10 in 5.0 mi Calm Calm - N/A   Scattered Clouds
3:15 AM 64.4 °F - 64.4 °F 100% 30.10 in 5.0 mi Calm Calm - N/A   Mostly Cloudy
3:35 AM 64.4 °F - 64.4 °F 100% 30.10 in 4.0 mi Calm Calm - N/A   Mostly Cloudy
3:55 AM 64.4 °F - 64.4 °F 100% 30.09 in 4.0 mi Calm Calm - N/A   Scattered Clouds
4:15 AM 64.4 °F - 64.4 °F 100% 30.09 in 0.5 mi Calm Calm - N/A Fog Fog
4:35 AM 64.4 °F - 64.4 °F 100% 30.08 in 0.5 mi Calm Calm - N/A Fog Fog
4:55 AM 64.4 °F - 64.4 °F 100% 30.09 in 4.0 mi Calm Calm - N/A   Scattered Clouds
5:15 AM 64.4 °F - 64.4 °F 100% 30.09 in 2.5 mi Calm Calm - N/A   Mostly Cloudy
5:35 AM 64.4 °F - 64.4 °F 100% 30.09 in 0.2 mi Calm Calm - N/A Fog Fog
5:55 AM 64.4 °F - 64.4 °F 100% 30.10 in 0.8 mi Calm Calm - N/A   Overcast
6:15 AM 64.4 °F - 64.4 °F 100% 30.10 in 1.0 mi Calm Calm - N/A   Overcast
6:35 AM 64.4 °F - 64.4 °F 100% 30.11 in 0.8 mi Calm Calm - N/A   Overcast
6:55 AM 62.6 °F - 62.6 °F 100% 30.11 in 3.0 mi Calm Calm - N/A   Mostly Cloudy
7:15 AM 62.6 °F - 62.6 °F 100% 30.12 in 0.8 mi Calm Calm - N/A   Overcast
7:35 AM 62.6 °F - 62.6 °F 100% 30.12 in 1.8 mi Calm Calm - N/A   Mostly Cloudy
7:55 AM 64.4 °F - 64.4 °F 100% 30.13 in 3.0 mi Calm Calm - N/A   Mostly Cloudy
8:15 AM 66.2 °F - 66.2 °F 100% 30.13 in 2.0 mi Calm Calm - N/A   Overcast
8:35 AM 68.0 °F - 68.0 °F 100% 30.14 in 2.5 mi Calm Calm - N/A   Overcast
8:55 AM 69.8 °F - 69.8 °F 100% 30.14 in 5.0 mi Calm Calm - N/A   Overcast
9:15 AM 71.6 °F - 71.6 °F 100% 30.14 in 2.0 mi Calm Calm - N/A   Overcast
9:35 AM 71.6 °F - 71.6 °F 100% 30.15 in 5.0 mi Calm Calm - N/A   Overcast
9:55 AM 75.2 °F - 73.4 °F 94% 30.15 in 7.0 mi Calm Calm - N/A   Mostly Cloudy
10:15 AM 77.0 °F - 73.4 °F 89% 30.15 in 7.0 mi North 3.5 mph - N/A   Scattered Clouds
10:35 AM 78.8 °F - 71.6 °F 78% 30.15 in 10.0 mi North 5.8 mph - N/A   Clear
10:55 AM 78.8 °F - 71.6 °F 78% 30.15 in 10.0 mi North 4.6 mph - N/A   Clear
11:15 AM 80.6 °F 84.6 °F 71.6 °F 74% 30.15 in 10.0 mi North 4.6 mph - N/A   Clear
11:35 AM 80.6 °F 84.6 °F 71.6 °F 74% 30.15 in 10.0 mi North 3.5 mph - N/A   Clear
11:55 AM 80.6 °F 85.4 °F 73.4 °F 79% 30.15 in 10.0 mi NNW 5.8 mph - N/A   Clear
12:15 PM 82.4 °F 88.2 °F 73.4 °F 74% 30.15 in 10.0 mi NNE 4.6 mph - N/A   Clear
12:35 PM 82.4 °F 87.2 °F 71.6 °F 70% 30.14 in 10.0 mi NNW 4.6 mph - N/A   Clear
12:55 PM 84.2 °F 89.6 °F 71.6 °F 66% 30.13 in 10.0 mi NNW 3.5 mph - N/A   Clear
1:15 PM 84.2 °F 89.6 °F 71.6 °F 66% 30.13 in 10.0 mi NNW 4.6 mph - N/A   Clear
1:35 PM 84.2 °F 89.6 °F 71.6 °F 66% 30.12 in 10.0 mi NW 3.5 mph - N/A   Clear
1:55 PM 84.2 °F 88.4 °F 69.8 °F 62% 30.11 in 10.0 mi NW 4.6 mph - N/A   Clear
2:15 PM 84.2 °F 88.4 °F 69.8 °F 62% 30.11 in 10.0 mi North 6.9 mph - N/A   Clear
2:35 PM 84.2 °F 88.4 °F 69.8 °F 62% 30.10 in 10.0 mi NNW 3.5 mph - N/A   Clear
2:55 PM 84.2 °F 87.3 °F 68.0 °F 58% 30.09 in 10.0 mi Calm Calm - N/A   Clear
3:15 PM 84.2 °F 87.3 °F 68.0 °F 58% 30.08 in 10.0 mi NW 3.5 mph - N/A   Clear
3:35 PM 84.2 °F 87.3 °F 68.0 °F 58% 30.08 in 10.0 mi Calm Calm - N/A   Clear
3:55 PM 84.2 °F 87.3 °F 68.0 °F 58% 30.08 in 10.0 mi NW 4.6 mph - N/A   Clear
4:15 PM 86.0 °F 88.2 °F 66.2 °F 51% 30.08 in 10.0 mi Calm Calm - N/A   Clear
4:35 PM 86.0 °F 88.2 °F 66.2 °F 51% 30.07 in 10.0 mi NNW 3.5 mph - N/A   Clear
4:55 PM 84.2 °F 85.6 °F 64.4 °F 51% 30.07 in 10.0 mi Calm Calm - N/A   Clear
5:15 PM 86.0 °F 87.3 °F 64.4 °F 48% 30.07 in 10.0 mi North 3.5 mph - N/A   Clear
5:35 PM 84.2 °F 86.6 °F 66.2 °F 55% 30.07 in 10.0 mi Calm Calm - N/A   Clear
5:55 PM 84.2 °F 87.3 °F 68.0 °F 58% 30.07 in 10.0 mi Calm Calm - N/A   Clear
6:15 PM 82.4 °F 85.4 °F 68.0 °F 62% 30.07 in 10.0 mi Calm Calm - N/A   Clear
6:35 PM 78.8 °F - 69.8 °F 74% 30.08 in 10.0 mi Calm Calm - N/A   Clear
6:55 PM 77.0 °F - 69.8 °F 78% 30.08 in 10.0 mi Calm Calm - N/A   Clear
7:15 PM 75.2 °F - 69.8 °F 83% 30.08 in 10.0 mi Calm Calm - N/A   Clear
7:35 PM 77.0 °F - 71.6 °F 83% 30.08 in 10.0 mi Calm Calm - N/A   Clear
7:55 PM 75.2 °F - 71.6 °F 89% 30.09 in 10.0 mi Calm Calm - N/A   Clear
8:15 PM 75.2 °F - 71.6 °F 89% 30.09 in 10.0 mi Calm Calm - N/A   Clear
8:35 PM 75.2 °F - 71.6 °F 89% 30.10 in 10.0 mi Calm Calm - N/A   Clear
8:55 PM 73.4 °F - 71.6 °F 94% 30.10 in 10.0 mi Calm Calm - N/A   Clear
9:15 PM 71.6 °F - 71.6 °F 100% 30.10 in 7.0 mi Calm Calm - N/A   Clear
9:35 PM 71.6 °F - 71.6 °F 100% 30.11 in 10.0 mi Calm Calm - N/A   Clear
9:55 PM 69.8 °F - 69.8 °F 100% 30.11 in 7.0 mi Calm Calm - N/A   Clear
10:15 PM 69.8 °F - 69.8 °F 100% 30.12 in 10.0 mi Calm Calm - N/A   Clear
10:35 PM 69.8 °F - 69.8 °F 100% 30.12 in 5.0 mi Calm Calm - N/A   Clear
10:55 PM 69.8 °F - 69.8 °F 100% 30.12 in 5.0 mi Calm Calm - N/A   Clear
11:15 PM 68.0 °F - 68.0 °F 100% 30.12 in 5.0 mi Calm Calm - N/A   Clear
11:35 PM 68.0 °F - 68.0 °F 100% 30.12 in 7.0 mi Calm Calm - N/A   Clear
11:55 PM 68.0 °F - 68.0 °F 100% 30.12 in 7.0 mi Calm Calm - N/A   Clear